Weather History for Benson, United Kingdom

Change the Weather History Date:

Thursday, February 21, 2013

  Actual Average Record
Temperature  
Mean Temperature 34 °F -  
Max Temperature 37 °F 48 °F 53 °F (1997)
Min Temperature 32 °F 34 °F 28 °F (2000)
Degree Days  
Heating Degree Days 30    
Moisture  
Dew Point 22 °F    
Average Humidity 60    
Maximum Humidity 70    
Minimum Humidity 46    
Precipitation  
Precipitation 0.00 in - - ()
Sea Level Pressure  
Sea Level Pressure 30.22 in    
Wind  
Wind Speed 12 mph ()    
Max Wind Speed 18 mph    
Max Gust Speed -    
Visibility 8.5 miles    
Events      
Averages and records for this station are not official NWS values.
T = Trace of Precipitation, MM = Missing Value Source: Averaged Metar Reports

Daily Weather History Graph

Daily Weather History Graph

Search for Another Location

Airport:

Trip Planner

Search our weather history database for the weather conditions in past years. The results will help you decide how hot, cold, wet, or windy it might be!

Date:

Astronomy

Feb. 21, 2013 Rise Set
Actual Time 7:06 AM GMT 5:30 PM GMT
Civil Twilight 6:32 AM GMT 6:04 PM GMT
Nautical Twilight 5:53 AM GMT 6:43 PM GMT
Astronomical Twilight 5:14 AM GMT 7:22 PM GMT
Moon 1:12 PM GMT (2/21) 4:20 AM GMT (2/21)
Length of Visible Light 11h 32m
Length of Day
10h 24m
Waxing Gibbous, 82% of the Moon is Illuminated
Feb 21
Waxing Gibbous
Feb 25
Full
Mar 4
Last Quarter
Mar 11
New
Mar 19
First Quarter

Hourly Weather History & Observations

Time (GMT) Temp. Windchill Dew Point Humidity Pressure Visibility Wind Dir Wind Speed Gust Speed Precip Events Conditions
12:50 AM 33.8 °F 24.8 °F 24.8 °F 70% 30.24 in 6.2 mi East 12.7 mph - N/A   Mostly Cloudy
1:50 AM 33.8 °F 24.8 °F 24.8 °F 70% 30.24 in 6.2 mi East 12.7 mph - N/A   Mostly Cloudy
2:50 AM 33 °F - 24 °F 59% 30.26 in 12 mi East 10.4 mph - -   Mostly Cloudy
2:50 AM 33.8 °F 25.8 °F 24.8 °F 70% 30.24 in 6.2 mi East 10.4 mph - N/A   Mostly Cloudy
3:50 AM 32.0 °F 21.2 °F 23.0 °F 69% 30.21 in 6.2 mi East 16.1 mph - N/A   Mostly Cloudy
4:50 AM 32.0 °F 23.6 °F 23.0 °F 69% 30.21 in 6.2 mi East 10.4 mph - N/A   Mostly Cloudy
5:50 AM 32 °F - 22 °F 56% 30.26 in 12 mi East 13.8 mph - -   Mostly Cloudy
5:50 AM 32.0 °F 22.1 °F 23.0 °F 69% 30.24 in 6.2 mi East 13.8 mph - N/A   Mostly Cloudy
6:50 AM 32.0 °F 21.6 °F 23.0 °F 69% 30.24 in 6.2 mi East 15.0 mph - N/A   Mostly Cloudy
7:50 AM 32.0 °F 21.6 °F 23.0 °F 69% 30.24 in 6.2 mi East 15.0 mph - N/A   Mostly Cloudy
8:50 AM 34 °F - 23 °F 52% 30.27 in 11 mi East 17.3 mph - -   Mostly Cloudy
8:50 AM 33.8 °F 23.2 °F 23.0 °F 65% 30.24 in 6.2 mi East 17.3 mph - N/A   Mostly Cloudy
9:50 AM 35.6 °F 26.2 °F 23.0 °F 60% 30.24 in 6.2 mi East 15.0 mph - N/A   Mostly Cloudy
10:50 AM 35.6 °F 26.2 °F 23.0 °F 60% 30.24 in 6.2 mi East 15.0 mph - N/A   Mostly Cloudy
11:50 AM 35 °F - 23 °F 48% 30.27 in 16 mi East 16.1 mph - -   Overcast
11:50 AM 35.6 °F 25.9 °F 23.0 °F 60% 30.24 in 6.2 mi East 16.1 mph - N/A   Overcast
12:50 PM 35.6 °F 26.2 °F 21.2 °F 56% 30.21 in 6.2 mi East 15.0 mph - N/A   Mostly Cloudy
1:50 PM 35.6 °F 26.6 °F 23.0 °F 60% 30.21 in 6.2 mi ENE 13.8 mph - N/A   Overcast
2:50 PM 34 °F - 23 °F 51% 30.23 in 19 mi East 12.7 mph - -   Overcast
2:50 PM 33.8 °F 24.8 °F 23.0 °F 65% 30.21 in 6.2 mi East 12.7 mph - N/A   Overcast
3:50 PM 33.8 °F 24.3 °F 21.2 °F 60% 30.21 in 6.2 mi East 13.8 mph - N/A   Overcast
4:50 PM 33.8 °F 24.8 °F 21.2 °F 60% 30.18 in 6.2 mi ENE 12.7 mph - N/A   Overcast
5:50 PM 33 °F - 22 °F 51% 30.22 in 16 mi ENE 11.5 mph - -   Overcast
5:50 PM 33.8 °F 25.3 °F 21.2 °F 60% 30.18 in 6.2 mi ENE 11.5 mph - N/A   Overcast
6:50 PM 32.0 °F 21.6 °F 19.4 °F 60% 30.18 in 6.2 mi East 15.0 mph - N/A   Overcast
7:50 PM 32.0 °F 22.5 °F 19.4 °F 60% 30.18 in 6.2 mi ENE 12.7 mph - N/A   Overcast
8:50 PM 32 °F - 19 °F 46% 30.21 in 19 mi East 18.4 mph - -   Overcast
8:50 PM 32.0 °F 20.5 °F 19.4 °F 60% 30.18 in 6.2 mi East 18.4 mph - N/A   Overcast
9:50 PM 32.0 °F 23.6 °F 19.4 °F 60% 30.18 in 6.2 mi ENE 10.4 mph - N/A   Overcast
10:50 PM 32.0 °F 24.2 °F 19.4 °F 60% 30.18 in 6.2 mi ENE 9.2 mph - N/A   Overcast
11:50 PM 32 °F - 20 °F 48% 30.20 in 19 mi ENE 10.4 mph - -   Overcast
11:50 PM 32.0 °F 23.6 °F 19.4 °F 60% 30.18 in 6.2 mi ENE 10.4 mph - N/A   Overcast